[[{"header":{"parameterUnit":"m.s-1","parameterCategory":1,"la1":30.2991,"la2":30.254,"lo1":-89.0895,"lo2":-89.0444,"dy":0.0017,"dx":0.0017,"nx":28,"ny":28,"refTime":"2024-10-16T21:00:00:Z","depth":0,"parameterNumber":2,"parameterNumberName":"U-component_of_WINDS"},"data":[0,0,0,0,0,0,0,0,0,0,0,0,0,0,0,0,0,0,0,0,0,0,0,0,0,0,0,0,0,0,0,0,0,0,0,0,0,0,0,0,0,0,0,0,0,0,0,0,0,0,0,0,0,0,0,0,0,0,-1.9674,-1.9674,0,-1.9638,-1.9638,-1.9637,-1.9551,-1.955,-1.9548,-1.9546,-1.9512,-1.9512,-1.9513,0,0,0,0,0,0,0,0,0,0,0,0,0,-1.9673,-1.9673,-1.9674,-1.9674,-1.9674,-1.9638,-1.9638,-1.9637,-1.9552,-1.955,-1.9547,-1.9545,-1.9511,-1.9512,-1.9513,0,0,0,0,0,0,0,0,0,0,0,0,0,-1.9659,-1.9673,-1.9675,-1.9627,-1.9622,-1.9638,-1.9638,-1.9637,-1.9552,-1.955,-1.9547,-1.9544,-1.9511,-1.9512,-1.9513,-1.9574,0,0,-1.9517,-1.9517,0,0,0,0,0,0,0,0,-1.966,-1.9659,-1.9634,-1.963,-1.9625,-1.9596,-1.9624,-1.9616,-1.9553,-1.9579,-1.9546,-1.9543,-1.9542,-1.9541,-1.954,-1.9573,-1.9571,-1.9517,-1.9518,-1.9518,-1.9518,0,0,0,0,0,0,0,-1.9661,-1.966,-1.966,-1.9634,-1.9628,-1.9608,-1.9603,-1.9622,-1.9576,-1.9576,-1.957,-1.9567,-1.9539,-1.9539,-1.9538,-1.9571,-1.9517,-1.9518,-1.9519,-1.9519,-1.9653,-1.9656,0,0,0,0,0,0,-1.9668,-1.9661,-1.9661,-1.9659,-1.9636,-1.961,-1.9605,-1.9608,-1.9576,-1.9568,-1.9569,-1.9563,-1.9538,-1.9537,-1.9537,-1.9607,-1.9518,-1.9519,-1.952,-1.965,-1.9654,-1.9657,0,0,0,0,0,0,-1.9669,-1.9669,-1.9663,-1.9658,-1.9656,-1.9613,-1.9618,-1.9609,-1.9609,-1.957,-1.9562,-1.9577,-1.9536,-1.9535,-1.9566,-1.9605,-1.952,-1.9521,-1.9647,-1.9651,-1.9655,-1.9748,0,0,0,0,0,0,-1.9669,-1.967,-1.9692,-1.966,-1.9657,-1.9692,-1.962,-1.961,-1.9611,-1.9602,-1.9576,-1.9569,-1.9534,-1.9565,-1.9567,-1.9605,-1.9522,-1.9643,-1.9649,-1.9654,-1.9742,-1.9755,-1.9767,0,0,0,0,0,-1.9669,-1.972,-1.9693,-1.9694,-1.9683,-1.9694,-1.9692,-1.9651,-1.9614,-1.9636,-1.9612,-1.9569,-1.96,-1.9568,-1.957,-1.9609,-1.964,-1.9647,-1.9653,-1.9736,-1.9753,-1.9767,0,0,0,0,0,0,-1.9758,-1.9715,-1.9685,-1.9726,-1.9714,-1.968,-1.9706,-1.967,-1.9669,-1.9661,-1.961,-1.9605,-1.9643,-1.9629,-1.9594,-1.9667,-1.9613,-1.9621,-1.9676,-1.9691,-1.9704,-1.9707,-1.9523,0,0,0,0,0,-1.9783,-1.9794,-1.9755,-1.9796,-1.9791,-1.975,-1.9753,-1.9722,-1.9708,-1.9703,-1.9681,-1.967,-1.9677,-1.9683,-1.9687,-1.9738,-1.9733,-1.9766,-1.9779,-1.979,-1.9797,-1.9825,-1.9841,-1.9678,-1.9678,-1.9678,0,0,-1.9833,-1.9811,-1.9821,-1.9813,-1.98,-1.9815,-1.9747,-1.9764,-1.9775,-1.9706,-1.9734,-1.9717,-1.9701,-1.9743,-1.976,-1.9733,-1.9841,-1.9798,-1.9807,-1.9808,-1.9834,-1.9849,-1.9863,-1.9682,-1.9682,-1.9681,0,0,-1.9934,-1.9917,-1.9949,-1.9938,-1.9919,-1.9891,-1.9899,-1.987,-1.9856,-1.9883,-1.9832,-1.9844,-1.9857,-1.9848,-1.9846,-1.9943,-1.9905,-1.9946,-2.0013,-2.0041,-2.0054,-2.0065,-2.0102,-2.0116,-1.9953,-1.9953,-1.9954,0,-1.9999,-2.0018,-1.9971,-1.9992,-1.9991,-1.9928,-1.9962,-1.9953,-1.9937,-1.9939,-1.9907,-1.9923,-1.9907,-1.9947,-1.9971,-1.997,-1.9979,-1.995,-2.0056,-2.0067,-2.0076,-2.0111,-2.0125,-1.9959,-1.9958,-1.9957,-1.9957,0,-2.0101,-2.0115,-2.0144,-2.013,-2.0131,-2.0159,-2.0117,-2.0124,-2.0093,-2.0069,-2.0098,-2.0077,-2.0077,-2.0084,-2.0054,-2.012,-2.0104,-2.0065,-2.001,-2.0098,-2.013,-2.0143,-1.9966,-1.9964,-1.9963,-1.9961,0,0,-2.0258,-2.0217,-2.0229,-2.0222,-2.0197,-2.0207,-2.0232,-2.0231,-2.024,-2.0231,-2.0252,-2.0264,-2.0228,-2.0226,-2.0194,-2.0218,-2.0299,-2.0176,-2.0175,-2.0202,-2.0374,-2.0405,-2.0421,-2.0273,-2.0275,-2.0277,-2.0376,0,-2.0354,-2.0394,-2.0352,-2.0401,-2.0415,-2.0355,-2.0377,-2.0365,-2.0343,-2.0352,-2.0328,-2.0339,-2.0289,-2.0287,-2.0309,-2.0285,-2.0334,-2.0277,-2.0294,-2.0296,-2.0303,-2.0438,-2.047,-2.0565,-2.0388,-2.039,-2.0391,0,-2.0471,-2.0468,-2.0518,-2.0491,-2.0495,-2.0515,-2.0512,-2.052,-2.0506,-2.0488,-2.0486,-2.0447,-2.0471,-2.0416,-2.0449,-2.0412,-2.0416,-2.0406,-2.0409,-2.0411,-2.0351,-2.0446,-2.0594,-2.0609,-2.041,-2.0409,-2.0407,0,-2.0584,-2.0591,-2.0623,-2.0618,-2.0587,-2.0603,-2.0591,-2.0573,-2.0576,-2.0573,-2.0574,-2.0574,-2.0575,-2.0577,-2.054,-2.0503,-2.0579,-2.052,-2.0567,-2.0568,-2.0588,-2.0588,-2.0741,-2.0587,-2.0586,-2.0586,-2.0586,0,-2.0696,-2.073,-2.0673,-2.0693,-2.0729,-2.0681,-2.0719,-2.07,-2.0686,-2.0702,-2.065,-2.0666,-2.0615,-2.0627,-2.0597,-2.0631,-2.0631,-2.0619,-2.0612,-2.0625,-2.0627,-2.0629,-2.0623,-2.059,-2.0589,-2.0588,-2.0588,0,-2.0829,-2.0791,-2.0822,-2.079,-2.0782,-2.0811,-2.0783,-2.0801,-2.0775,-2.0797,-2.0799,-2.076,-2.077,-2.0733,-2.0738,-2.0718,-2.0769,-2.0749,-2.0774,-2.0769,-2.0819,-2.0816,-2.0981,-2.1001,-2.0832,-2.0833,-2.0835,0,-2.0905,-2.0929,-2.0899,-2.0906,-2.0896,-2.0908,-2.091,-2.0864,-2.0868,-2.0854,-2.0874,-2.088,-2.0883,-2.0904,-2.0876,-2.088,-2.0862,-2.0919,-2.0862,-2.0876,-2.0866,-2.0866,-2.0869,-2.0932,-2.0934,-2.0936,-2.0938,0,-2.1044,-2.1024,-2.1029,-2.1028,-2.1032,-2.1029,-2.1023,-2.1032,-2.0982,-2.099,-2.1,-2.1003,-2.1007,-2.1015,-2.1013,-2.1002,-2.0963,-2.0955,-2.0967,-2.0983,-2.0997,-2.0993,-2.0809,-2.0952,-2.0951,-2.095,-2.0949,-2.0948,-2.1152,-2.1172,-2.1154,-2.1162,-2.1152,-2.1147,-2.1163,-2.1139,-2.1146,-2.1147,-2.1118,-2.1135,-2.1121,-2.1114,-2.1106,-2.1119,-2.1093,-2.1109,-2.1113,-2.1119,-2.1128,-2.0993,-2.1118,-2.1118,-2.1117,-2.1117,-2.1117,0,-2.1291,-2.1277,-2.1284,-2.1276,-2.1283,-2.1243,-2.1234,-2.1243,-2.1258,-2.1247,-2.1251,-2.1264,-2.1271,-2.1244,-2.1248,-2.1264,-2.1247,-2.1267,-2.1267,-2.1265,-2.1151,-2.1141,-2.1281,-2.1281,-2.1281,-2.1281,-2.1281,-2.1281,-2.1364,-2.1396,-2.1375,-2.1402,-2.1387,-2.1402,-2.1401,-2.1397,-2.1388,-2.1405,-2.1411,-2.1392,-2.1376,-2.1378,-2.1384,-2.1376,-2.1381,-2.1409,-2.1395,-2.1289,-2.1273,-2.1258,-2.1249,-2.1409,-2.141,-2.1509,-2.151,-2.151]},{"header":{"parameterUnit":"m.s-1","parameterCategory":1,"la1":30.2991,"la2":30.254,"lo1":-89.0895,"lo2":-89.0444,"dy":0.0017,"dx":0.0017,"nx":28,"ny":28,"refTime":"2024-10-16T21:00:00:Z","depth":0,"parameterNumber":3,"parameterNumberName":"V-component_of_WINDS"},"data":[0,0,0,0,0,0,0,0,0,0,0,0,0,0,0,0,0,0,0,0,0,0,0,0,0,0,0,0,0,0,0,0,0,0,0,0,0,0,0,0,0,0,0,0,0,0,0,0,0,0,0,0,0,0,0,0,0,0,-1.4892,-1.4892,0,-1.4937,-1.4937,-1.4938,-1.4939,-1.4938,-1.4938,-1.4937,-1.4984,-1.4985,-1.4987,0,0,0,0,0,0,0,0,0,0,0,0,0,-1.4809,-1.481,-1.4892,-1.4892,-1.4893,-1.4936,-1.4937,-1.4938,-1.4939,-1.4938,-1.4938,-1.4937,-1.4983,-1.4985,-1.4987,0,0,0,0,0,0,0,0,0,0,0,0,0,-1.4848,-1.4811,-1.4892,-1.4899,-1.49,-1.4936,-1.4937,-1.4938,-1.4939,-1.4938,-1.4938,-1.4937,-1.4982,-1.4985,-1.4987,-1.502,0,0,-1.4995,-1.4996,0,0,0,0,0,0,0,0,-1.4846,-1.4851,-1.4897,-1.4899,-1.49,-1.4931,-1.4925,-1.4965,-1.4939,-1.4924,-1.4937,-1.4936,-1.4967,-1.4971,-1.4981,-1.5022,-1.5024,-1.4995,-1.4997,-1.4998,-1.4999,0,0,0,0,0,0,0,-1.4843,-1.4849,-1.491,-1.4898,-1.49,-1.49,-1.4905,-1.4932,-1.495,-1.4926,-1.4926,-1.4931,-1.4967,-1.4978,-1.4982,-1.5024,-1.4995,-1.4998,-1.4999,-1.5,-1.5096,-1.5096,0,0,0,0,0,0,-1.4839,-1.4847,-1.4908,-1.4911,-1.487,-1.4902,-1.4908,-1.4922,-1.4949,-1.4953,-1.4932,-1.4931,-1.4974,-1.4979,-1.4984,-1.5025,-1.4998,-1.5001,-1.5002,-1.5095,-1.5096,-1.5097,0,0,0,0,0,0,-1.4837,-1.4844,-1.4906,-1.4879,-1.4887,-1.4905,-1.4921,-1.4923,-1.4934,-1.4954,-1.4957,-1.494,-1.4974,-1.498,-1.5011,-1.5026,-1.5002,-1.5004,-1.5093,-1.5095,-1.5096,-1.5106,0,0,0,0,0,0,-1.4835,-1.4844,-1.4856,-1.4879,-1.4888,-1.4933,-1.4922,-1.4925,-1.4939,-1.4938,-1.4962,-1.4966,-1.4974,-1.5007,-1.5014,-1.5029,-1.5006,-1.5092,-1.5094,-1.5096,-1.5105,-1.5108,-1.511,0,0,0,0,0,-1.4832,-1.4857,-1.4857,-1.4864,-1.4904,-1.4934,-1.4939,-1.4948,-1.494,-1.4953,-1.4965,-1.4965,-1.5023,-1.501,-1.5017,-1.5034,-1.5091,-1.5094,-1.5096,-1.5103,-1.5107,-1.511,0,0,0,0,0,0,-1.4835,-1.486,-1.486,-1.4893,-1.4911,-1.4934,-1.495,-1.4951,-1.4972,-1.4971,-1.4981,-1.4986,-1.5017,-1.5029,-1.5014,-1.5068,-1.5056,-1.506,-1.506,-1.5063,-1.5066,-1.5064,-1.5008,0,0,0,0,0,-1.4839,-1.4861,-1.4882,-1.4909,-1.4918,-1.4933,-1.4946,-1.4951,-1.497,-1.4978,-1.4993,-1.5012,-1.5034,-1.5049,-1.5071,-1.5105,-1.5112,-1.5121,-1.5123,-1.5126,-1.513,-1.515,-1.5155,-1.5104,-1.5104,-1.5104,0,0,-1.4849,-1.4865,-1.4878,-1.491,-1.4925,-1.4948,-1.4939,-1.4963,-1.4981,-1.4982,-1.5013,-1.5024,-1.5045,-1.5079,-1.5094,-1.5089,-1.5145,-1.5129,-1.513,-1.5133,-1.5153,-1.5158,-1.5162,-1.5105,-1.5105,-1.5105,0,0,-1.4878,-1.4892,-1.4917,-1.4932,-1.4955,-1.4964,-1.497,-1.4993,-1.5001,-1.5031,-1.5033,-1.5054,-1.5092,-1.5108,-1.5121,-1.5157,-1.5158,-1.5164,-1.518,-1.52,-1.5204,-1.5208,-1.5222,-1.5227,-1.5167,-1.5167,-1.5167,0,-1.4888,-1.4922,-1.493,-1.4955,-1.497,-1.4971,-1.4997,-1.5011,-1.5039,-1.505,-1.5043,-1.5092,-1.5107,-1.5145,-1.5154,-1.5163,-1.5172,-1.5162,-1.5203,-1.5206,-1.521,-1.5224,-1.5229,-1.5168,-1.5167,-1.5167,-1.5167,0,-1.4934,-1.4957,-1.4975,-1.5003,-1.5019,-1.5044,-1.5056,-1.5072,-1.5075,-1.5086,-1.5118,-1.5135,-1.5161,-1.517,-1.5173,-1.5209,-1.5205,-1.52,-1.519,-1.5215,-1.5229,-1.5234,-1.5169,-1.5168,-1.5168,-1.5168,0,0,-1.4968,-1.4999,-1.5006,-1.5019,-1.5044,-1.5063,-1.5088,-1.5114,-1.5128,-1.5147,-1.5169,-1.5202,-1.5198,-1.5213,-1.5218,-1.5235,-1.5265,-1.5229,-1.5229,-1.5237,-1.5307,-1.5312,-1.5318,-1.5265,-1.5266,-1.5266,-1.5306,0,-1.5001,-1.5047,-1.5055,-1.5095,-1.5118,-1.512,-1.5142,-1.516,-1.517,-1.5191,-1.5202,-1.5226,-1.5218,-1.5228,-1.5245,-1.5258,-1.5279,-1.5254,-1.5287,-1.5288,-1.5284,-1.5325,-1.533,-1.5366,-1.5311,-1.5312,-1.5312,0,-1.5048,-1.5069,-1.5111,-1.5134,-1.5144,-1.5164,-1.5189,-1.5208,-1.5229,-1.5235,-1.5252,-1.5255,-1.5282,-1.5269,-1.5307,-1.529,-1.5303,-1.5311,-1.5313,-1.5318,-1.5303,-1.5333,-1.5378,-1.5384,-1.532,-1.532,-1.5319,0,-1.5071,-1.5109,-1.514,-1.5151,-1.5178,-1.5192,-1.5204,-1.5224,-1.5239,-1.526,-1.527,-1.5294,-1.5308,-1.5327,-1.5337,-1.5325,-1.5375,-1.5362,-1.5382,-1.5382,-1.5394,-1.5394,-1.5444,-1.5399,-1.5399,-1.5399,-1.5399,0,-1.5109,-1.5136,-1.5151,-1.5171,-1.5201,-1.5209,-1.5239,-1.525,-1.5268,-1.529,-1.5292,-1.5312,-1.5323,-1.5345,-1.5353,-1.5385,-1.539,-1.5397,-1.5399,-1.5398,-1.5397,-1.5409,-1.5407,-1.54,-1.54,-1.54,-1.5399,0,-1.5141,-1.5152,-1.5187,-1.5209,-1.5215,-1.5237,-1.5256,-1.5275,-1.5285,-1.5313,-1.532,-1.5335,-1.5362,-1.5373,-1.5405,-1.541,-1.5447,-1.5446,-1.5441,-1.5442,-1.5462,-1.5461,-1.5524,-1.5533,-1.548,-1.548,-1.5481,0,-1.5166,-1.5187,-1.5211,-1.5226,-1.5239,-1.5262,-1.5278,-1.5287,-1.5303,-1.5329,-1.5345,-1.5371,-1.5393,-1.5435,-1.545,-1.5475,-1.5476,-1.5496,-1.548,-1.5479,-1.5479,-1.5479,-1.5482,-1.55,-1.55,-1.5501,-1.5501,0,-1.521,-1.5214,-1.5237,-1.5262,-1.5281,-1.53,-1.532,-1.5332,-1.5344,-1.5362,-1.5389,-1.5406,-1.544,-1.5466,-1.5492,-1.5505,-1.5506,-1.5506,-1.5512,-1.5513,-1.5509,-1.5514,-1.5451,-1.5505,-1.5504,-1.5504,-1.5504,-1.5504,-1.524,-1.5259,-1.528,-1.5306,-1.5321,-1.5339,-1.5359,-1.5371,-1.5394,-1.5422,-1.5426,-1.5455,-1.5476,-1.5511,-1.5524,-1.5548,-1.5543,-1.5551,-1.5554,-1.5557,-1.5559,-1.5504,-1.5552,-1.5552,-1.5552,-1.5552,-1.5552,0,-1.5286,-1.53,-1.5323,-1.535,-1.5371,-1.5368,-1.539,-1.5407,-1.5433,-1.5452,-1.5474,-1.5506,-1.5532,-1.5548,-1.5574,-1.559,-1.5591,-1.5597,-1.5597,-1.56,-1.5561,-1.5554,-1.5596,-1.5596,-1.5596,-1.5596,-1.5596,-1.5596,-1.5313,-1.5345,-1.5353,-1.5393,-1.5406,-1.5436,-1.5448,-1.5465,-1.5481,-1.5516,-1.5538,-1.5548,-1.5567,-1.5594,-1.5618,-1.5623,-1.5633,-1.564,-1.5644,-1.5607,-1.5603,-1.5599,-1.5592,-1.5641,-1.5641,-1.5681,-1.5682,-1.5682]}]]